Skip Page Navigation
NASA JPL Caltech
NASA Logo - Jet Propulsion Laboratory + View the NASA Portal
+ Center for Near-Earth Object Studies
JPL Home Earth Solar System Stars & Galaxies Technology
JPL Solar System Dynamics
BODIES ORBITS EPHEMERIDES TOOLS PHYSICAL DATA DISCOVERY FAQ SITE MAP
IMPORTANT: The SSD Announcement email list is now available. Major changes are coming in the near future, including possible hostname and/or URL changes. To be notified of such changes, subscribe to this email list.

Please visit this page for more details.


JPL Small-Body Database Browser
Search: [ help ]  
52504 (1996 FQ2)
Classification: Main-belt Asteroid          SPK-ID: 2052504
Ephemeris | Orbit Diagram | Orbital Elements | Mission Design | Physical Parameters | Discovery Circumstances ]

[ show orbit diagram ]
Orbital Elements at Epoch 2458600.5 (2019-Apr-27.0) TDB
Reference: JPL 18 (heliocentric ecliptic J2000)
 Element Value Uncertainty (1-sigma)   Units 
e .1277302317938435 4.7175e-08  
a 2.43641975578077 1.0942e-08 au
q 2.125215295627793 1.1148e-07 au
i .6906905669086767 4.1952e-06 deg
node 326.6873718996625 0.00035983 deg
peri 207.3587297018018 0.00036018 deg
M 28.87394464718926 1.4961e-05 deg
tp 2458489.088450555586
(2019-Jan-05.58845056)
5.7693e-05 TDB
period 1389.077879384707
3.80
9.3573e-06
2.562e-08
d
yr
n .2591647346363778 1.7458e-09 deg/d
Q 2.747624215933747 1.2339e-08 au
  Orbit Determination Parameters
   # obs. used (total)      677  
   data-arc span      10436 days (28.57 yr)  
   first obs. used      1990-10-13  
   last obs. used      2019-05-10  
   planetary ephem.      DE431  
   SB-pert. ephem.      SB431-N16  
   condition code      0  
   norm. resid. RMS      .52706  
   source      ORB  
   producer      Otto Matic  
   solution date      2019-May-30 04:47:17  

Additional Information
 Earth MOID = 1.13056 au 
 Jupiter MOID = 2.21877 au 
 T_jup = 3.493 
[ show covariance matrix ]

Ephemeris | Orbit Diagram | Orbital Elements | Mission Design | Physical Parameters | Discovery Circumstances ]

Physical Parameter Table
Parameter Symbol Value Units Sigma Reference Notes
absolute magnitude H 16.3   n/a MPO436151  

52504 (1996 FQ2)          Discovered 1996-Mar-19 by NEAT at Haleakala
Reference: 20030216/Numbers.arcLast Updated: 2004-04-19

Alternate Designations
 1996 FQ2 = 2000 GU77 
Ephemeris | Orbit Diagram | Orbital Elements | Mission Design | Physical Parameters | Discovery Circumstances ]
ABOUT SSD CREDITS/AWARDS PRIVACY/COPYRIGHT GLOSSARY LINKS
FirstGov 2020-Jan-28 23:58 UT
(server date/time)  
NASA Home Page
Site Manager:   Ryan S. Park
Webmaster  Alan B. Chamberlin